TimeEST,TemperatureF,Dew PointF,Humidity,Sea Level PressureIn,VisibilityMPH,Wind Direction,Wind SpeedMPH,Gust SpeedMPH,PrecipitationIn,Events,Conditions,WindDirDegrees,DateUTC
12:54 AM,25.0,21.9,88,30.25,10.0,Calm,Calm,-,N/A,,Clear,0,2012-11-20 05:54:00
1:54 AM,24.1,21.9,91,30.24,9.0,Calm,Calm,-,N/A,,Clear,0,2012-11-20 06:54:00
2:54 AM,24.1,21.0,88,30.23,10.0,Calm,Calm,-,N/A,,Clear,0,2012-11-20 07:54:00
3:54 AM,25.0,23.0,92,30.23,10.0,Calm,Calm,-,N/A,,Clear,0,2012-11-20 08:54:00
4:54 AM,24.1,21.9,91,30.22,10.0,Calm,Calm,-,N/A,,Clear,0,2012-11-20 09:54:00
5:54 AM,24.1,21.9,91,30.21,10.0,Calm,Calm,-,N/A,,Clear,0,2012-11-20 10:54:00
7:54 AM,25.0,23.0,92,30.22,10.0,Calm,Calm,-,N/A,,Clear,0,2012-11-20 12:54:00
8:54 AM,30.0,26.1,85,30.22,10.0,Calm,Calm,-,N/A,,Clear,0,2012-11-20 13:54:00
9:54 AM,36.0,28.9,76,30.21,10.0,Calm,Calm,-,N/A,,Clear,0,2012-11-20 14:54:00
10:54 AM,39.9,28.0,63,30.19,10.0,Calm,Calm,-,N/A,,Clear,0,2012-11-20 15:54:00
11:54 AM,43.0,27.0,53,30.17,10.0,Calm,Calm,-,N/A,,Clear,0,2012-11-20 16:54:00
12:54 PM,45.0,28.0,52,30.15,10.0,Calm,Calm,-,N/A,,Clear,0,2012-11-20 17:54:00
1:54 PM,45.0,28.0,52,30.14,10.0,Calm,Calm,-,N/A,,Clear,0,2012-11-20 18:54:00
2:54 PM,46.0,28.9,51,30.13,10.0,Calm,Calm,-,N/A,,Clear,0,2012-11-20 19:54:00
3:54 PM,45.0,28.9,53,30.14,10.0,Calm,Calm,-,N/A,,Clear,0,2012-11-20 20:54:00
4:54 PM,37.9,28.9,70,30.14,10.0,Calm,Calm,-,N/A,,Clear,0,2012-11-20 21:54:00
5:54 PM,34.0,28.9,82,30.14,10.0,Calm,Calm,-,N/A,,Clear,0,2012-11-20 22:54:00
6:54 PM,33.1,28.0,82,30.16,10.0,Calm,Calm,-,N/A,,Clear,0,2012-11-20 23:54:00
7:54 PM,30.0,27.0,88,30.15,10.0,Calm,Calm,-,N/A,,Clear,0,2012-11-21 00:54:00
8:54 PM,28.9,26.1,89,30.15,10.0,Calm,Calm,-,N/A,,Clear,0,2012-11-21 01:54:00
9:54 PM,28.9,26.1,89,30.16,10.0,Calm,Calm,-,N/A,,Clear,0,2012-11-21 02:54:00
10:54 PM,28.9,26.1,89,30.17,10.0,Calm,Calm,-,N/A,,Clear,0,2012-11-21 03:54:00
11:54 PM,28.9,26.1,89,30.17,10.0,Calm,Calm,-,N/A,,Clear,0,2012-11-21 04:54:00